Weather in Vazhgort

Russia / Komi Republic     64°00′44″N   47°02′56″E
temp.,
°C
wind,
m/s
gust,
m/s
humid.,
%
clouds,
%
prec.,
mm/h
press.,
hPa
HPBL,
m
8 march, mon
mon800:00−21ene249890 0.0 100688
03:00−23ne239790 0.1 100676
06:00−25ne259831 0.0 1007103
09:00−23ne369325 0.0 1008267
12:00−19nne358816 0.0 1008413
15:00−19nne468747 0.0 1009569
18:00−24n3795100 0.0 1011193
21:00−29n239688 0.0 101471
9 march, tue
tue900:00−31n239533 0.0 101570
03:00−33n239517 0.0 101740
06:00−33nnw22960 0.0 101829
09:00−29nw23940 0.0 1019179
12:00−23nw238763 0.0 1019373
15:00−21nw359072 0.0 1019380
18:00−24wnw229731 0.0 101920
21:00−24w239865 0.1 102084
10 march, wed
wed1000:00−26w239897 0.0 102045
03:00−25w249893 0.1 1020141
06:00−26w259898 0.0 102085
09:00−21wnw369699 0.0 1019246
12:00−14w4891100 0.0 1017345
15:00−10wnw51190100 0.1 1016622
18:00−8nw41195100 0.4 1015768
21:00−8nw61491100 0.8 1016702
11 march, thu
thu1100:00−11nw61290100 0.1 1016530
03:00−15wnw51286100 0.1 1017381
06:00−18wnw41188100 0.0 1018311
09:00−15wnw4118061 0.0 1017446
12:00−11wnw510750 0.0 1016640
15:00−10w611760 0.0 1015805
18:00−14w414870 0.0 1015654
21:00−14w414870 0.0 1015617
12 march, fri
fri1200:00−13w4138085 0.0 1015611
03:00−13w5138193 0.0 1014572
06:00−13wsw41387100 0.0 1014553
09:00−11wsw51185100 0.0 1013562
12:00−10wsw51187100 0.0 1012643
15:00−9wsw51188100 0.0 1012615
18:00−9wsw41288100 0.0 1012578
21:00−10sw41291100 0.0 1013506